CAPE
0 0 0 0 0 0 0 0 0 0 0 0 0 0 0 0 0 0 0 0 0 0 0 0 0 0 0 0 0 0 0 0 0 0 0 0 0 0 0 0 0 0 0 0
0 0 0 0 0 0 0 0 0 0 0 0 0 0 0 0 0 0 0 0 0 0 0 0 0 0 0 0 0 0 0 0 0 0 0 0 0 0 0 0 0 0 2 0
0 0 0 0 0 0 0 0 0 0 0 0 0 0 0 0 0 0 0 0 0 0 0 0 0 0 0 0 0 0 0 0 0 0 0 0 0 0 0 0 0 0 0 0
0 0 0 0 0 0 0 0 0 0 0 0 0 0 0 0 0 0 0 0 0 0 0 0 0 0 0 0 0 0 0 0 0 0 0 0 0 0 0 0 0 0 0 0
0 0 0 0 0 0 0 0 0 0 0 0 0 0 0 0 0 0 0 0 0 0 0 0 0 0 0 0 0 0 0 0 0 0 0 0 0 0 0 0 0 0 0 0
0 0 0 0 0 0 0 0 0 0 0 0 0 0 0 0 0 0 0 0 0 0 0 0 0 0 0 0 0 0 0 0 0 0 0 1 0 0 0 0 0 0 0 0
0 0 0 0 0 0 0 0 0 0 0 0 0 0 0 0 0 0 0 0 0 0 0 0 0 0 0 0 0 0 0 0 0 1 0 1 0 0 0 0 0 0 0 0
0 0 0 0 0 0 0 0 0 0 0 0 0 0 0 0 0 0 0 0 0 0 0 0 0 0 0 0 0 0 0 0 2 0 1 1 0 0 0 0 0 0 0 1
0 0 0 0 0 0 0 0 0 0 0 0 0 0 0 0 0 0 0 0 0 0 0 0 0 0 0 0 0 0 0 0 0 0 0 0 0 0 0 4 0 1 5 0
0 0 0 0 0 0 0 0 0 0 0 0 0 0 0 0 0 0 0 0 0 0 0 0 0 0 0 0 0 0 0 0 0 0 0 0 0 0 0 0 0 3 0 1
0 0 0 0 0 0 0 0 0 0 0 0 0 0 0 0 0 0 0 0 0 0 0 0 0 0 0 0 0 0 0 0 0 0 0 0 0 0 0 0 0 0 0 0
0 0 0 0 0 0 0 0 0 0 0 0 0 0 0 8 0 0 0 0 0 0 0 0 0 0 0 0 0 0 0 0 0 0 0 0 0 0 0 0 0 0 3 1
0 0 0 0 0 0 0 0 0 0 0 0 0 0 0 0 0 0 12 0 2 7 1 0 0 0 0 0 0 1 0 0 0 0 0 0 0 0 0 0 6 2 0 0
0 0 0 0 0 0 0 0 0 0 0 0 0 0 0 0 0 0 7 16 4 25 8 5 1 1 0 0 0 2 3 2 0 1 0 0 0 1 3 1 2 0 0 5
0 0 0 0 0 0 0 0 0 0 2 0 0 0 0 0 0 1 3 14 20 2 8 12 0 0 0 0 0 1 0 0 0 0 0 4 1 4 0 0 0 1 1 0
0 0 0 0 0 0 0 0 0 0 1 1 1 0 0 0 0 0 0 0 0 0 10 1 1 0 4 0 0 0 0 1 8 0 1 6 3 0 0 0 0 3 4 0
0 0 0 0 0 0 0 0 0 2 0 0 1 0 0 0 0 0 0 0 0 3 14 11 2 6 4 0 5 0 0 0 6 2 1 7 0 0 0 0 0 4 0 0
0 0 0 1 1 1 0 0 0 0 8 0 4 0 0 0 0 0 0 0 0 2 5 0 1 0 2 11 0 0 0 2 10 7 0 0 0 0 0 1 2 0 0 0
0 0 1 0 0 0 0 0 0 0 0 3 0 0 0 0 0 0 0 0 0 0 0 0 0 0 4 0 0 0 0 5 2 0 0 0 0 0 0 0 0 0 0 0
0 0 0 0 0 0 0 0 0 0 0 0 0 0 0 0 0 0 0 1 0 0 0 0 0 1 0 0 0 0 0 0 0 0 0 0 0 0 0 0 0 0 0 0
0 0 1 0 1 0 0 0 0 0 0 0 0 0 0 0 0 0 0 0 0 0 0 0 0 0 0 0 0 0 0 0 0 0 0 0 0 0 0 0 0 0 0 0
0 0 0 0 1 0 0 0 0 1 0 0 0 0 0 0 0 0 0 0 0 0 0 4 0 0 0 0 0 0 0 0 0 0 0 0 0 0 0 0 0 0 0 0
0 0 2 0 0 1 0 0 2 0 0 0 1 0 0 0 0 0 0 0 0 0 0 0 0 0 0 0 0 0 0 0 0 0 0 0 0 0 0 0 0 0 0 0
0 0 0 0 0 0 0 0 0 0 0 0 0 1 0 0 0 0 0 0 0 0 0 0 0 0 0 0 0 0 0 0 0 0 0 0 0 0 0 0 0 0 0 0
0 0 0 0 0 0 0 0 0 0 0 0 0 0 0 0 0 0 0 0 0 0 0 0 0 0 0 0 0 0 0 0 0 0 0 0 0 0 0 0 0 0 0 0
0 0 0 0 0 0 0 0 0 0 0 0 0 0 0 0 0 0 0 0 0 0 0 0 0 0 0 0 0 0 0 0 0 0 0 0 0 0 0 0 0 0 0 0
0 0 0 0 0 0 0 0 0 0 0 0 0 0 0 0 0 0 0 0 0 0 0 0 0 0 0 0 0 0 0 0 0 0 0 0 0 0 0 0 0 0 0 0
CIN
-0 -0 -0 -0 -0 -0 -0 -0 -0 -0 -0 -0 -0 -0 -0 -0 -0 -0 -0 -0 -0 -0 -0 -0 -0 -0 -0 -0 -0 -0 -0 -0 -0 -0 -0 -0 -0 -0 -0 -0 -1 -0 -0 -0
-0 -0 -0 -0 -0 -0 -0 -0 -0 -0 -0 -0 -0 -0 -0 -0 -0 -0 -0 -0 -0 -0 -0 -0 -0 -0 -0 -0 -0 -0 -0 -0 -0 -0 -0 -0 -0 -0 -0 -0 -0 -0 -2 -0
-0 -0 -0 -0 -0 -0 -0 -0 -0 -0 -0 -0 -0 -0 -0 -0 -0 -0 -0 -0 -0 -0 -0 -0 -0 -0 -0 -0 -0 -0 -0 -0 -0 -0 -0 -0 -0 -0 -0 -0 -0 -0 -0 -0
-0 -0 -0 -0 -0 -0 -0 -0 -0 -0 -0 -0 -0 -0 -0 -0 -0 -0 -0 -0 -0 -0 -0 -0 -0 -0 -0 -0 -0 -0 -0 -0 -0 -0 -0 -0 -0 -0 -0 -0 -0 -0 -0 -0
-0 -0 -0 -0 -0 -0 -0 -0 -0 -0 -0 -0 -0 -0 -0 -0 -0 -0 -0 -0 -0 -0 -0 -0 -0 -0 -0 -0 -0 -0 -0 -0 -0 -0 -0 -0 -0 -0 -0 -0 -0 -0 -0 -0
-0 -0 -0 -0 -0 -0 -0 -0 -0 -0 -0 -0 -0 -0 -0 -0 -0 -0 -0 -0 -0 -0 -0 -0 -0 -0 -0 -0 -0 -0 -0 -0 -0 -0 -0 -5 -0 -0 -0 -0 -0 -0 -0 -0
-0 -0 -0 -0 -0 -0 -0 -0 -0 -0 -0 -0 -0 -0 -0 -0 -0 -0 -0 -0 -0 -0 -0 -0 -0 -0 -0 -0 -0 -0 -0 -0 -0 -5 -11 -1 -0 -0 -0 -0 -0 -0 -0 -0
-0 -0 -0 -0 -0 -0 -0 -0 -0 -0 -0 -0 -0 -0 -0 -0 -0 -0 -0 -0 -0 -0 -0 -0 -0 -0 -0 -0 -0 -0 -0 -0 -19 -2 -2 -3 -0 -0 -0 -0 -0 -0 -0 -17
-0 -0 -0 -0 -0 -0 -0 -0 -0 -0 -0 -0 -0 -0 -0 -0 -0 -0 -0 -0 -0 -0 -0 -0 -0 -0 -0 -0 -0 -0 -0 -0 -0 -0 -0 -2 -0 -0 -0 -19 -0 -4 -16 -5
-0 -0 -0 -0 -0 -0 -0 -0 -0 -0 -0 -0 -0 -0 -0 -0 -0 -0 -0 -0 -0 -0 -0 -0 -0 -0 -0 -0 -0 -0 -0 -0 -0 -0 -0 -0 -0 -0 -0 -3 -0 -33 -0 -13
-0 -0 -0 -0 -0 -0 -0 -0 -0 -0 -0 -0 -0 -0 -0 -0 -0 -0 -0 -0 -0 -0 -0 -0 -0 -0 -0 -0 -0 -0 -0 -0 -0 -0 -1 -0 -0 -0 -6 -0 -0 -0 -0 -9
-0 -0 -0 -0 -0 -0 -0 -0 -0 -0 -0 -0 -0 -0 -0 -49 -0 -0 -0 -0 -0 -4 -0 -0 -0 -0 -0 -0 -0 -0 -0 -0 -0 -0 -0 -0 -0 -0 -0 -0 -1 -0 -21 -24
-0 -0 -0 -0 -0 -0 -0 -0 -0 -0 -0 -0 -0 -0 -0 -0 -0 -0 -16 -0 -23 -37 -53 -0 -0 -1 -0 -0 -0 -0 -0 -0 -0 -2 -0 -0 -0 -0 -0 -0 -33 -39 -0 -0
-0 -0 -0 -0 -0 -0 -0 -0 -0 -0 -0 -1 -0 -0 -0 -0 -0 -0 -57 -38 -22 -34 -45 -7 -3 -0 -0 -0 -0 -5 -7 -2 -0 -2 -0 -0 -0 -11 -34 -20 -18 -0 -0 -0
-0 -0 -0 -0 -0 -0 -0 -0 -0 -0 -13 -1 -0 -0 -0 -0 -0 -28 -73 -44 -24 -6 -9 -7 -7 -0 -0 -0 -0 -1 -0 -0 -3 -0 -0 -16 -14 -32 -9 -0 -0 -0 -0 -0
-0 -0 -0 -0 -0 -0 -0 -0 -0 -0 -3 -8 -2 -0 -0 -0 -0 -0 -0 -0 -0 -0 -3 -7 -23 -0 -10 -10 -0 -0 -0 -13 -16 -0 -1 -13 -32 -0 -0 -0 -0 -3 -0 -0
-0 -0 -0 -0 -0 -0 -0 -0 -0 -0 -0 -1 -2 -0 -0 -0 -0 -0 -0 -0 -0 -34 -20 -5 -10 -7 -21 -1 -0 -0 -0 -0 -17 -54 -22 -14 -0 -0 -0 -0 -0 -0 -0 -0
-0 -0 -0 -0 -0 -0 -0 -0 -0 -1 -16 -1 -1 -0 -0 -0 -0 -0 -0 -0 -0 -5 -9 -0 -11 -0 -5 -3 -0 -0 -0 -22 -35 -40 -0 -0 -0 -0 -0 -0 -17 -0 -0 -0
-0 -0 -0 -0 -0 -0 -0 -0 -0 -0 -0 -0 -0 -0 -0 -0 -0 -0 -0 -0 -0 -0 -0 -1 -0 -0 -2 -0 -0 -0 -7 -16 -7 -0 -0 -0 -0 -0 -0 -0 -0 -0 -0 -0
-0 -0 -0 -0 -0 -0 -0 -0 -0 -0 -0 -0 -0 -0 -0 -0 -0 -0 -0 -0 -0 -0 -0 -0 -0 -1 -0 -0 -0 -0 -0 -0 -0 -0 -0 -0 -0 -0 -0 -0 -0 -0 -0 -0
-0 -0 -0 -0 -0 -0 -0 -0 -0 -0 -0 -0 -0 -0 -0 -0 -0 -0 -0 -0 -0 -0 -0 -0 -0 -0 -0 -0 -0 -0 -0 -0 -0 -0 -0 -0 -0 -0 -0 -0 -0 -0 -0 -0
-0 -0 -0 -0 -0 -0 -12 -0 -0 -0 -0 -0 -0 -0 -0 -0 -0 -0 -0 -0 -0 -0 -0 -5 -1 -0 -0 -0 -0 -0 -0 -0 -0 -0 -0 -0 -0 -0 -0 -0 -0 -0 -0 -0
-0 -0 -0 -0 -0 -0 -0 -0 -0 -0 -0 -0 -1 -0 -0 -0 -0 -0 -0 -0 -0 -0 -0 -0 -0 -0 -0 -0 -0 -0 -0 -0 -0 -0 -0 -0 -0 -0 -0 -0 -0 -0 -0 -0
-0 -0 -0 -0 -0 -0 -0 -0 -0 -0 -0 -0 -0 -0 -0 -0 -0 -0 -0 -0 -0 -1 -0 -0 -0 -0 -0 -0 -0 -0 -0 -0 -0 -0 -0 -0 -0 -0 -0 -0 -0 -0 -0 -0
-0 -0 -0 -0 -0 -0 -0 -0 -0 -0 -0 -0 -0 -0 -0 -0 -0 -0 -0 -0 -0 -0 -0 -0 -0 -0 -0 -0 -0 -0 -0 -0 -0 -0 -0 -0 -0 -0 -0 -0 -0 -0 -0 -0
-0 -0 -0 -0 -0 -0 -0 -0 -0 -0 -0 -0 -0 -0 -0 -0 -0 -0 -0 -0 -0 -0 -0 -0 -0 -0 -0 -0 -0 -0 -0 -0 -0 -0 -0 -0 -0 -0 -0 -0 -0 -0 -0 -0
-0 -0 -0 -0 -0 -0 -0 -0 -0 -0 -0 -0 -0 -0 -0 -0 -0 -0 -0 -0 -0 -0 -0 -0 -0 -0 -0 -0 -0 -0 -0 -0 -0 -0 -0 -0 -0 -0 -0 -0 -0 -0 -0 -0
Wind_Speed
16 16 16 16 16 15 11 11 10 14 14 10 12 12 13 14 15 16 15 15 16 16 17 17 17 16 17 19 22 22 23 19 26 26 21 19 19 22 26 30 29 25 27 25
17 17 16 16 16 16 12 11 10 13 13 10 11 12 13 15 15 17 16 15 16 16 16 16 17 18 16 17 20 22 22 22 26 24 20 26 27 27 27 27 24 25 27 28
17 17 17 17 17 17 12 11 11 13 13 12 10 11 12 13 16 16 16 15 16 16 17 19 17 20 20 20 20 18 18 17 19 21 22 24 27 31 33 27 27 28 25 30
18 18 18 18 18 18 11 13 12 12 12 13 11 12 12 13 14 15 16 17 17 16 17 20 19 21 23 25 21 20 21 22 20 19 20 24 25 28 29 26 24 26 28 29
18 18 18 18 19 17 12 11 11 12 12 13 13 15 15 13 14 15 16 16 18 21 19 19 23 24 24 23 20 23 26 29 25 29 27 25 26 27 24 24 25 26 30 34
17 17 17 18 18 15 12 13 12 11 14 13 13 14 15 13 13 16 15 16 19 21 20 18 20 21 22 22 25 26 24 26 25 29 29 31 32 24 23 25 28 30 33 30
17 16 16 17 16 14 12 13 12 12 13 13 13 14 14 15 16 15 16 18 19 18 20 21 23 25 26 24 22 18 21 23 26 29 30 29 23 28 29 31 27 30 27 30
18 17 16 16 16 16 13 15 14 12 14 13 16 16 16 15 17 17 18 20 18 17 23 29 31 29 26 24 23 21 16 20 25 28 29 32 32 29 28 33 34 30 29 37
19 18 17 17 17 17 14 16 15 15 14 16 15 16 17 19 20 20 18 18 17 21 25 25 29 30 27 25 26 22 22 22 23 29 36 39 33 29 29 29 42 26 39 46
20 19 18 18 17 17 15 16 16 16 16 17 15 17 18 16 18 20 20 18 19 21 25 27 26 26 25 28 27 28 26 26 28 31 34 33 33 29 24 37 45 41 45 44
22 20 19 19 18 18 17 17 17 17 18 18 17 18 18 19 19 21 19 22 24 25 27 26 26 25 26 28 25 28 28 30 33 32 36 42 27 27 37 40 41 46 46 43
23 21 20 20 19 18 18 18 17 17 19 21 20 21 21 20 18 19 21 24 24 21 25 25 25 28 28 31 36 26 29 24 33 31 36 30 31 41 36 36 46 44 41 37
25 24 22 20 19 18 18 18 18 19 23 27 26 24 21 19 19 18 26 26 25 23 23 27 28 30 28 34 32 29 29 28 34 44 36 37 39 40 38 39 39 36 37 39
27 25 22 22 20 20 18 20 20 20 23 31 29 23 23 22 19 19 19 23 22 25 23 27 28 30 24 32 34 33 32 29 38 42 38 42 36 36 38 38 35 37 36 35
26 27 25 22 21 19 20 22 22 21 24 31 29 28 22 18 19 20 19 19 22 26 32 31 31 29 29 34 35 34 27 34 36 42 35 38 43 39 37 38 37 35 33 36
25 26 25 22 18 16 22 29 26 21 19 28 37 29 30 30 24 20 22 22 22 21 23 27 26 23 25 36 40 30 29 30 30 35 37 37 37 34 35 36 29 29 33 38
25 24 22 21 16 18 23 23 22 14 14 26 36 34 26 21 21 20 20 21 19 19 23 27 28 28 26 34 44 41 37 33 36 36 36 38 35 36 33 32 32 34 39 38
22 22 21 20 17 20 25 23 20 13 16 20 27 28 26 21 22 23 22 21 21 22 26 27 30 29 27 37 37 37 36 36 36 32 29 28 27 29 33 34 36 37 38 39
13 12 11 19 23 24 24 17 17 16 17 24 23 26 32 21 22 21 23 26 32 26 28 28 27 31 34 34 37 38 38 36 30 26 26 27 30 33 34 37 38 39 42 44
7 14 18 21 22 14 13 18 21 20 22 23 27 24 26 21 25 32 32 29 28 33 31 27 30 36 34 36 34 34 33 25 23 25 27 29 32 36 40 41 40 41 44 45
15 18 20 15 12 17 20 23 23 23 27 25 26 25 30 25 31 28 25 29 28 35 32 30 33 36 32 32 29 24 23 22 22 23 25 29 34 40 42 44 43 44 44 43
13 10 10 13 17 20 22 24 23 25 28 23 25 24 21 22 21 24 23 28 26 34 26 30 36 32 35 28 26 25 24 25 26 30 33 35 38 41 41 42 44 42 40 39
12 16 16 18 20 27 28 31 29 29 25 22 21 22 20 20 20 22 23 29 31 26 30 33 31 30 30 28 28 28 29 31 33 35 34 36 41 42 41 43 40 38 38 38
16 17 21 22 23 25 26 26 24 21 20 18 18 21 21 21 22 22 28 27 27 33 35 35 29 29 32 33 33 36 38 39 40 40 40 41 42 43 41 38 37 38 41 40
18 18 24 24 21 20 19 18 18 18 15 17 19 21 21 24 25 24 26 29 32 30 32 26 28 30 34 35 37 38 41 44 44 42 41 42 42 44 43 38 38 37 38 37
19 20 22 20 19 20 19 19 18 16 15 16 18 22 24 26 24 27 29 31 35 32 27 28 31 33 35 37 39 41 44 45 44 42 42 43 44 46 42 40 38 37 34 31
20 21 20 19 20 20 19 18 18 15 17 22 21 25 26 23 28 30 26 33 33 28 32 34 34 37 41 44 45 44 43 43 43 43 43 42 42 41 40 38 34 32 28 22
Wind_Direction
281 288 298 312 318 307 311 309 317 285 298 333 340 17 26 27 6 354 15 17 19 15 3 0 5 15 18 10 359 355 349 355 339 341 354 9 5 357 353 341 338 333 326 318
278 285 293 302 311 318 317 322 326 305 321 346 360 2 10 7 15 1 13 20 14 11 7 7 2 359 14 11 2 357 355 350 343 343 349 343 344 338 341 340 342 334 330 330
277 283 289 295 299 304 321 323 316 321 340 346 17 15 6 10 7 10 11 19 7 3 357 352 355 348 348 351 354 1 2 0 351 341 339 342 338 333 331 334 330 327 320 323
277 282 288 293 295 296 317 316 316 324 326 340 358 359 359 7 5 16 9 4 3 7 354 344 343 342 339 336 344 349 348 340 340 338 334 334 331 330 331 331 327 327 332 330
275 280 287 294 296 295 315 314 320 325 330 335 341 335 344 360 1 359 356 2 358 352 348 346 335 336 337 338 342 338 337 328 334 330 331 332 330 332 332 332 334 331 329 327
277 282 287 293 298 294 305 310 329 337 320 330 333 336 339 353 358 355 4 357 349 343 344 346 341 337 335 329 325 329 332 332 336 332 338 338 337 348 344 339 335 333 333 335
275 283 288 294 299 305 304 309 324 328 318 326 331 335 348 346 346 344 348 352 346 349 350 344 336 331 327 326 329 330 330 332 332 331 335 332 344 340 334 331 338 337 336 335
271 278 286 292 295 299 303 304 310 322 317 322 319 323 328 338 341 339 337 340 347 353 342 335 327 327 333 334 338 340 337 338 334 333 331 327 335 337 340 333 332 336 340 335
270 277 283 289 294 299 303 307 311 311 317 310 321 321 324 323 325 329 335 342 349 346 336 336 325 321 328 332 331 339 340 337 332 330 325 325 335 337 336 336 328 341 334 331
266 275 282 287 293 299 301 304 314 307 309 311 318 316 320 329 329 324 328 333 334 339 328 325 321 320 324 322 324 328 330 330 326 324 323 325 332 336 340 327 327 332 331 330
264 270 277 285 291 297 299 300 313 305 305 308 314 314 314 320 321 320 326 326 327 324 319 318 319 315 317 319 321 325 323 324 325 327 324 324 343 341 327 324 326 327 328 329
261 266 273 279 286 292 298 296 308 313 303 305 313 311 311 314 317 319 317 316 322 323 322 317 317 312 314 313 311 319 313 316 320 320 317 325 327 324 325 326 325 328 328 331
261 264 269 275 281 289 295 299 301 308 304 302 302 303 310 312 312 316 309 313 313 313 315 313 311 306 312 308 314 314 316 318 311 317 320 317 321 323 322 327 327 331 331 330
260 264 269 271 278 283 292 294 299 301 306 298 299 310 305 309 311 310 311 309 312 311 311 310 309 309 312 308 309 308 316 321 316 312 315 316 321 324 328 328 331 332 334 335
261 262 266 271 276 283 290 292 293 297 298 297 299 305 307 313 313 312 312 314 309 306 303 302 302 309 311 309 308 308 319 312 312 310 316 318 321 329 331 331 332 336 340 335
263 263 265 267 273 281 290 290 289 287 298 300 294 304 299 302 303 301 300 303 304 301 307 309 311 306 308 307 308 319 321 314 309 309 314 317 324 330 332 332 333 334 334 331
263 264 264 267 267 274 281 291 305 300 298 299 297 299 307 315 315 314 315 315 311 306 306 303 305 305 306 307 305 314 316 314 314 315 318 320 327 327 335 337 334 333 333 334
264 264 266 269 271 283 280 289 300 305 305 304 296 297 302 320 314 314 322 319 318 313 309 312 309 312 308 306 310 315 318 320 321 324 330 329 331 331 331 333 332 333 334 335
269 269 270 278 276 278 285 300 303 299 290 291 293 294 300 314 311 318 322 320 309 314 306 307 311 308 306 313 317 318 320 321 322 327 331 333 333 333 333 332 333 331 331 332
261 278 278 279 282 297 299 296 292 290 288 288 288 297 295 305 306 308 312 316 311 310 313 317 309 305 311 312 315 319 323 330 333 331 331 331 331 331 331 332 332 331 331 331
282 277 279 292 303 295 292 286 283 285 287 291 292 289 294 305 301 303 309 310 314 309 314 313 314 316 322 328 330 336 337 340 340 341 340 338 335 333 331 330 331 331 331 332
290 296 301 295 292 291 287 284 288 287 289 295 299 302 305 310 314 308 311 308 313 308 321 315 314 323 330 334 337 339 341 339 336 336 333 332 332 333 331 331 331 332 333 334
305 294 290 289 288 279 281 280 285 287 295 299 302 303 310 314 315 313 312 308 306 319 312 312 317 328 333 336 335 334 335 333 330 329 329 329 330 331 331 330 332 333 334 335
291 285 279 281 285 286 286 288 292 299 302 304 304 305 308 313 311 313 309 310 315 309 308 310 322 328 329 330 330 328 328 329 327 326 325 326 327 329 330 331 332 332 332 333
286 287 281 281 291 297 301 305 302 306 311 308 309 309 310 308 307 309 311 311 307 310 312 317 324 327 328 328 328 327 326 326 325 325 325 326 327 327 326 328 329 329 330 332
289 288 287 293 291 293 298 301 303 309 310 314 314 308 308 303 307 305 304 306 305 312 316 321 323 325 326 327 327 326 325 325 325 326 326 326 326 327 327 327 327 329 331 332
287 288 290 292 297 297 298 299 299 303 303 301 307 303 300 312 306 305 309 306 311 315 317 320 321 323 324 323 323 324 325 325 326 326 326 326 328 330 330 330 332 334 335 338